Location: Frizzleburg
(41.0764°N, 80.4548°W)
Time: 08:59:45
(UTC+00:00)

Cosmos 1898 Rocket - Pass Details

Date: 17 November 2019
Orbit: 753 x 785 km, 74.0° (Epoch: 12 December)

Event Time Altitude Azimuth Distance (km) Brightness Sun altitude
Exits shadow 10:22:49 43° 270° (W) 1,078 3.8 -20.4°
Maximum altitude 10:23:33 45° 294° (WNW) 1,035 3.7 -20.3°
Drops below altitude 10° 10:28:37 10° 8° (N) 2,327 6.0 -19.4°
Sets 10:31:08 0° 14° (NNE) 3,263 6.8 -18.9°
